Temp
0 -0 -1 -1 -2 -2 -2 -3 -3 -3 -4 -4 -5 -5 -6 -6 -7 -7 -7 -8 -8 -9 -9 -10 -10 -11 -11 -11 -11 -11 -11 -10 -10 -9 -9 -9 -9 -8 -8 -8 -8 -7 -8
0 -0 -1 -1 -2 -2 -2 -3 -3 -3 -4 -4 -5 -5 -6 -6 -6 -7 -7 -7 -8 -8 -9 -9 -10 -10 -11 -11 -11 -10 -11 -10 -10 -10 -9 -9 -9 -9 -9 -9 -9 -8 -8
0 -0 -1 -1 -2 -2 -2 -3 -3 -3 -4 -4 -5 -5 -5 -6 -6 -6 -7 -7 -8 -8 -9 -9 -9 -10 -10 -11 -11 -11 -11 -11 -10 -10 -9 -9 -9 -9 -9 -9 -9 -9 -9
0 -0 -1 -1 -2 -2 -2 -3 -3 -4 -4 -4 -5 -5 -6 -6 -6 -6 -7 -7 -7 -8 -8 -9 -9 -10 -10 -10 -11 -11 -11 -11 -10 -10 -10 -10 -10 -9 -9 -9 -9 -9 -8
0 -0 -1 -1 -2 -2 -3 -3 -3 -4 -4 -4 -5 -5 -6 -6 -6 -6 -7 -7 -7 -8 -8 -9 -9 -9 -10 -10 -10 -11 -11 -11 -11 -10 -10 -10 -10 -10 -10 -9 -9 -9 -9
0 -1 -1 -1 -2 -2 -3 -3 -3 -4 -4 -4 -5 -5 -6 -6 -7 -7 -7 -7 -7 -8 -8 -9 -9 -9 -10 -10 -10 -10 -11 -11 -11 -10 -10 -10 -9 -9 -9 -9 -9 -9 -9
0 -0 -1 -1 -2 -2 -3 -3 -3 -4 -4 -4 -5 -5 -6 -6 -7 -7 -7 -8 -8 -8 -8 -9 -9 -9 -10 -10 -10 -10 -10 -10 -10 -10 -10 -10 -9 -9 -9 -9 -9 -9 -9
1 0 -1 -1 -1 -2 -2 -3 -3 -3 -4 -4 -5 -5 -6 -6 -6 -7 -8 -8 -8 -8 -8 -9 -9 -9 -9 -10 -10 -10 -10 -10 -10 -10 -10 -10 -10 -9 -9 -9 -9 -9 -9
1 0 -0 -1 -1 -2 -2 -2 -3 -3 -4 -4 -5 -5 -6 -6 -6 -7 -8 -8 -9 -9 -9 -9 -9 -10 -9 -9 -10 -10 -10 -10 -10 -10 -10 -10 -10 -9 -9 -9 -9 -9 -9
1 1 0 -0 -1 -1 -2 -2 -3 -3 -3 -4 -4 -5 -5 -6 -7 -7 -8 -8 -9 -9 -9 -9 -10 -10 -10 -9 -9 -9 -10 -10 -10 -10 -10 -10 -10 -9 -9 -9 -9 -9 -9
2 1 0 -0 -1 -1 -2 -2 -2 -3 -3 -4 -4 -5 -6 -6 -7 -8 -8 -9 -9 -9 -9 -10 -10 -10 -10 -10 -9 -9 -9 -9 -9 -10 -9 -10 -10 -10 -10 -10 -10 -10 -10
2 1 0 -0 -1 -1 -2 -2 -2 -3 -3 -4 -4 -5 -6 -6 -7 -8 -8 -9 -9 -10 -9 -10 -10 -10 -10 -10 -10 -9 -9 -9 -9 -9 -9 -9 -9 -9 -9 -10 -9 -10 -10
2 1 1 0 -0 -1 -1 -2 -2 -3 -3 -4 -4 -5 -6 -6 -6 -7 -8 -8 -9 -9 -9 -10 -10 -10 -10 -10 -10 -10 -10 -9 -9 -9 -9 -9 -9 -9 -9 -9 -9 -9 -9
2 1 1 0 -0 -1 -1 -2 -2 -2 -3 -4 -4 -4 -5 -6 -6 -7 -7 -8 -8 -9 -9 -10 -10 -11 -10 -10 -10 -10 -10 -10 -9 -9 -9 -9 -9 -9 -9 -9 -9 -9 -9
3 2 1 1 0 -0 -1 -1 -2 -2 -3 -3 -3 -4 -4 -5 -5 -6 -7 -7 -8 -9 -9 -10 -10 -11 -11 -10 -10 -10 -10 -9 -9 -9 -9 -9 -9 -9 -9 -9 -9 -9 -9
4 3 2 1 1 0 -0 -1 -1 -2 -2 -3 -3 -3 -4 -4 -5 -5 -6 -7 -8 -9 -9 -10 -10 -11 -10 -10 -10 -10 -9 -9 -9 -9 -9 -9 -9 -9 -9 -9 -9 -9 -9
4 4 3 3 2 1 0 -1 -1 -1 -1 -2 -2 -2 -3 -3 -3 -4 -5 -6 -7 -8 -9 -10 -10 -10 -10 -10 -10 -10 -10 -10 -10 -9 -9 -9 -9 -9 -9 -9 -9 -9 -9
4 4 4 3 3 2 1 0 -0 -1 -1 -1 -1 -1 -2 -2 -2 -4 -4 -5 -6 -7 -8 -9 -10 -10 -10 -10 -10 -10 -10 -9 -9 -9 -9 -9 -9 -9 -9 -9 -9 -9 -9
5 4 4 4 3 3 2 1 1 1 -0 -1 -1 -1 -1 -2 -2 -3 -3 -4 -5 -7 -8 -9 -10 -10 -10 -10 -10 -10 -10 -9 -9 -9 -9 -9 -9 -9 -9 -9 -9 -9 -9
4 4 4 4 3 3 3 2 2 1 1 0 -0 -1 -1 -1 -1 -2 -3 -4 -5 -6 -7 -8 -10 -10 -10 -10 -10 -10 -9 -9 -9 -9 -9 -9 -9 -9 -9 -9 -9 -9 -9
4 4 4 4 3 3 3 3 2 2 1 1 0 -0 -1 -1 -1 -1 -2 -3 -4 -5 -7 -8 -9 -10 -10 -10 -9 -10 -9 -9 -9 -9 -9 -9 -9 -9 -9 -9 -9 -9 -9
4 4 4 4 3 3 3 3 2 2 1 1 0 0 -0 -1 -1 -1 -2 -3 -4 -5 -6 -8 -9 -9 -10 -9 -9 -9 -9 -9 -9 -9 -9 -10 -10 -9 -9 -9 -9 -9 -9
4 4 4 4 3 3 3 3 2 2 1 1 1 0 -0 -1 -1 -1 -1 -2 -3 -4 -6 -7 -8 -9 -9 -9 -9 -9 -9 -9 -9 -9 -9 -10 -10 -10 -9 -9 -9 -9 -9
4 4 4 3 3 3 3 3 2 2 1 1 0 0 -0 -1 -1 -1 -1 -2 -3 -4 -5 -7 -8 -9 -9 -9 -9 -9 -9 -9 -9 -9 -9 -10 -10 -10 -10 -9 -9 -9 -9
4 3 3 3 3 3 3 2 2 2 1 1 0 0 -0 -1 -1 -1 -1 -1 -2 -3 -5 -6 -7 -8 -9 -9 -9 -9 -10 -10 -10 -10 -10 -10 -10 -10 -10 -10 -10 -9 -9
4 3 3 3 3 3 3 2 2 2 1 1 1 -0 -0 -1 -1 -1 -1 -1 -2 -3 -4 -6 -7 -8 -9 -9 -9 -9 -10 -10 -10 -10 -10 -10 -10 -10 -10 -10 -10 -10 -9
Height
3112 3110 3107 3103 3100 3097 3092 3088 3083 3079 3073 3068 3062 3056 3050 3044 3037 3031 3025 3018 3010 3003 2996 2990 2985 2980 2976 2973 2971 2968 2966 2964 2963 2963 2963 2964 2965 2966 2967 2970 2972 2976 2977
3110 3108 3105 3102 3099 3095 3092 3088 3083 3078 3073 3068 3063 3056 3050 3044 3038 3032 3025 3018 3011 3004 2998 2992 2986 2981 2977 2972 2970 2968 2965 2964 2962 2961 2961 2962 2963 2965 2966 2968 2969 2971 2973
3108 3106 3104 3101 3097 3094 3091 3087 3082 3078 3073 3068 3062 3056 3050 3044 3038 3032 3025 3019 3013 3006 3000 2994 2988 2983 2978 2973 2970 2967 2965 2963 2961 2960 2959 2959 2960 2962 2964 2965 2966 2968 2969
3106 3104 3101 3099 3096 3093 3090 3086 3081 3076 3071 3066 3061 3055 3049 3044 3038 3031 3026 3020 3013 3007 3001 2995 2989 2984 2979 2975 2971 2967 2964 2963 2961 2960 2959 2958 2958 2959 2960 2961 2963 2964 2966
3103 3101 3099 3097 3094 3090 3088 3084 3079 3075 3070 3065 3060 3054 3048 3042 3037 3031 3026 3020 3013 3007 3001 2996 2990 2985 2980 2976 2973 2968 2963 2961 2960 2959 2959 2958 2958 2958 2958 2958 2959 2959 2960
3100 3098 3096 3094 3091 3088 3085 3081 3077 3072 3068 3063 3058 3053 3048 3042 3036 3031 3025 3020 3014 3008 3002 2997 2992 2986 2982 2978 2974 2970 2965 2961 2958 2957 2957 2957 2956 2956 2956 2956 2956 2957 2958
3098 3096 3094 3091 3088 3086 3082 3078 3075 3070 3065 3061 3057 3051 3046 3041 3036 3031 3025 3020 3014 3008 3002 2997 2992 2987 2983 2979 2975 2971 2968 2964 2960 2957 2955 2955 2954 2954 2953 2953 2953 2954 2954
3095 3093 3091 3088 3086 3083 3080 3076 3072 3069 3064 3059 3055 3050 3045 3040 3035 3029 3024 3019 3014 3009 3002 2997 2992 2988 2984 2980 2976 2972 2970 2966 2962 2959 2956 2954 2953 2952 2952 2952 2951 2952 2952
3092 3090 3088 3086 3083 3080 3078 3074 3071 3067 3062 3058 3054 3048 3043 3038 3033 3028 3022 3017 3012 3008 3001 2995 2991 2988 2984 2980 2977 2974 2970 2968 2964 2961 2958 2956 2954 2952 2951 2950 2950 2949 2949
3088 3087 3085 3083 3081 3078 3075 3072 3068 3064 3060 3056 3051 3046 3041 3036 3031 3026 3020 3015 3011 3006 3000 2994 2990 2987 2984 2981 2978 2975 2972 2969 2966 2963 2960 2958 2956 2954 2952 2951 2950 2949 2947
3084 3083 3081 3079 3077 3075 3072 3068 3065 3061 3058 3053 3048 3043 3038 3032 3027 3022 3017 3011 3007 3003 2997 2991 2989 2986 2983 2981 2977 2975 2972 2970 2968 2965 2962 2960 2958 2956 2954 2952 2951 2949 2948
3079 3078 3076 3075 3073 3071 3068 3065 3062 3058 3054 3050 3045 3039 3033 3028 3023 3018 3013 3007 3002 2999 2993 2988 2987 2985 2982 2978 2976 2974 2972 2970 2968 2966 2964 2961 2959 2957 2955 2953 2952 2950 2948
3074 3073 3071 3070 3068 3066 3064 3061 3058 3054 3050 3046 3041 3036 3030 3024 3019 3014 3009 3003 2998 2995 2989 2985 2984 2982 2980 2977 2974 2974 2972 2970 2968 2966 2964 2962 2960 2958 2956 2954 2952 2950 2947
3069 3068 3066 3065 3063 3061 3059 3056 3053 3049 3045 3041 3036 3032 3027 3021 3016 3011 3006 3001 2996 2990 2985 2982 2980 2979 2977 2975 2973 2972 2971 2969 2967 2966 2963 2962 2960 2957 2955 2953 2951 2949 2946
3063 3062 3061 3059 3057 3056 3054 3051 3048 3044 3041 3037 3032 3028 3023 3018 3012 3007 3002 2996 2991 2987 2981 2979 2976 2974 2973 2972 2971 2970 2969 2968 2967 2966 2964 2961 2959 2957 2955 2953 2950 2947 2944
3057 3056 3055 3053 3052 3050 3049 3046 3043 3039 3035 3032 3028 3024 3019 3015 3009 3003 2998 2992 2987 2983 2979 2976 2973 2972 2971 2970 2969 2969 2967 2967 2966 2965 2963 2961 2959 2957 2955 2952 2949 2946 2943
3052 3050 3049 3048 3047 3045 3043 3041 3038 3033 3030 3027 3024 3020 3015 3010 3005 3000 2995 2989 2985 2981 2977 2973 2971 2969 2968 2968 2967 2966 2966 2965 2963 2963 2961 2960 2958 2955 2953 2951 2948 2945 2942
3046 3045 3043 3042 3041 3040 3037 3035 3033 3029 3026 3022 3019 3016 3012 3007 3003 2998 2992 2987 2982 2978 2974 2971 2968 2966 2967 2965 2965 2964 2964 2963 2962 2961 2960 2959 2957 2955 2952 2949 2946 2943 2941
3040 3039 3038 3037 3036 3035 3032 3030 3028 3025 3022 3019 3016 3013 3009 3006 3001 2996 2991 2986 2980 2975 2972 2969 2966 2964 2964 2964 2963 2963 2963 2962 2961 2959 2958 2957 2955 2953 2950 2948 2945 2942 2938
3034 3033 3032 3031 3030 3029 3027 3025 3023 3021 3018 3015 3013 3010 3006 3002 2999 2994 2990 2984 2979 2975 2971 2968 2965 2963 2962 2962 2962 2962 2961 2960 2960 2958 2956 2954 2953 2951 2949 2946 2943 2940 2936
3027 3026 3026 3025 3024 3023 3022 3021 3019 3017 3015 3012 3010 3007 3004 3000 2997 2993 2988 2983 2978 2974 2970 2967 2964 2962 2961 2960 2960 2960 2960 2959 2957 2956 2954 2952 2951 2948 2946 2944 2941 2938 2935
3020 3020 3020 3019 3018 3017 3016 3016 3014 3013 3011 3008 3006 3004 3001 2998 2995 2992 2988 2982 2978 2973 2970 2967 2964 2962 2960 2959 2958 2958 2958 2957 2955 2954 2952 2950 2949 2947 2944 2942 2939 2936 2933
3013 3013 3013 3013 3012 3012 3011 3010 3009 3008 3007 3005 3002 3000 2998 2995 2992 2989 2985 2981 2977 2972 2969 2966 2964 2962 2960 2959 2958 2956 2956 2955 2954 2952 2950 2948 2947 2945 2942 2940 2937 2934 2931
3006 3006 3006 3006 3006 3005 3006 3005 3004 3003 3002 3002 2998 2995 2994 2992 2990 2987 2983 2979 2975 2971 2967 2965 2963 2962 2960 2959 2957 2956 2955 2953 2951 2950 2948 2946 2944 2942 2940 2938 2935 2932 2930
2999 2999 2999 2999 2999 2999 2999 3000 2999 2998 2996 2996 2995 2992 2990 2989 2987 2984 2981 2978 2974 2971 2967 2964 2962 2960 2959 2958 2956 2954 2953 2951 2949 2947 2946 2944 2942 2940 2938 2935 2933 2931 2928
2990 2990 2991 2991 2992 2992 2992 2993 2993 2993 2992 2991 2991 2989 2987 2985 2984 2982 2978 2975 2972 2970 2966 2963 2960 2959 2958 2956 2954 2952 2951 2949 2947 2945 2943 2941 2939 2937 2935 2933 2931 2929 2926
Wind_Speed
8 9 9 10 11 13 15 17 19 21 22 23 24 24 25 25 25 26 26 27 28 26 26 24 19 15 14 12 9 6 6 5 11 14 11 12 11 13 19 24 21 18 20
7 8 9 10 11 13 15 17 20 21 22 23 23 24 24 24 24 23 24 25 26 26 25 24 23 18 15 11 10 8 5 5 6 7 14 16 13 14 15 16 17 20 23
7 8 9 10 11 12 14 17 19 21 23 23 23 24 24 24 24 24 24 24 25 26 26 24 22 21 17 13 9 9 8 7 7 5 6 10 16 19 17 18 19 20 22
6 7 8 9 10 12 14 16 18 20 21 22 23 23 23 24 24 25 24 24 24 24 24 25 24 22 21 19 16 10 7 8 7 4 5 5 8 12 16 19 20 20 21
7 6 7 9 10 12 14 15 17 19 20 21 22 23 23 23 24 24 25 25 24 23 23 23 24 24 21 19 18 18 12 7 7 8 6 6 7 7 10 13 15 15 16
8 8 8 8 10 12 14 15 16 17 19 20 21 22 23 24 24 23 23 24 24 23 22 21 21 22 23 20 17 17 18 14 8 6 6 9 11 12 11 11 11 11 12
11 10 10 10 11 12 14 15 16 17 19 20 21 23 23 24 24 24 22 21 22 23 22 20 19 19 20 21 20 17 16 16 17 11 7 4 4 6 9 12 14 14 14
12 13 13 13 13 13 15 16 17 18 20 21 22 23 24 25 26 26 24 22 21 22 23 21 18 17 17 17 19 19 16 14 14 15 14 10 7 3 3 3 6 10 12
14 15 15 15 15 16 16 18 19 20 21 23 23 24 26 26 26 27 26 24 22 22 22 22 20 17 17 16 15 16 18 16 14 14 14 13 12 10 8 6 4 4 5
17 16 16 17 17 17 18 19 20 21 22 25 26 26 27 28 27 27 26 25 23 21 21 21 20 20 15 15 13 12 12 15 15 14 14 15 15 13 11 9 8 7 6
17 18 18 18 19 19 19 20 22 23 24 25 27 29 29 30 30 29 28 27 23 20 20 20 18 18 17 12 12 10 10 10 10 12 13 13 14 13 13 13 12 10 9
16 18 19 19 20 21 21 22 23 24 25 27 28 30 32 32 32 31 30 29 25 22 21 20 16 15 14 13 10 10 9 9 9 9 9 10 10 11 12 12 12 12 12
18 19 20 20 21 21 23 24 25 26 26 27 29 30 31 33 33 32 31 30 27 24 22 18 15 12 11 10 10 8 7 7 7 7 7 8 9 9 10 10 10 11 12
20 22 22 20 21 22 22 23 25 27 27 28 29 30 31 32 33 31 30 29 26 23 20 17 13 10 9 8 9 8 6 7 6 7 7 7 8 9 9 11 11 12 13
21 23 23 23 23 22 22 23 24 26 28 28 29 30 30 30 32 31 30 29 26 22 19 14 11 9 8 7 8 7 6 6 7 7 8 9 9 11 11 11 11 12 13
19 21 23 23 23 23 22 22 24 25 27 27 27 28 29 29 29 29 29 27 25 21 17 12 9 7 7 6 7 7 7 5 6 8 8 9 10 11 12 13 13 15 15
19 20 21 21 21 21 22 21 21 23 26 25 25 26 27 26 27 27 27 26 24 21 15 10 6 5 4 5 6 5 6 6 6 6 8 9 10 12 12 14 15 16 17
19 19 19 19 20 19 19 20 19 20 21 23 22 23 24 23 25 26 26 26 24 21 16 11 6 3 3 4 7 6 5 6 7 6 8 9 11 12 13 14 15 16 16
19 19 18 18 18 18 17 18 17 18 18 19 19 20 21 21 23 25 25 24 24 20 16 12 7 2 1 4 6 7 5 6 8 7 7 9 10 12 14 15 16 17 18
19 19 18 17 18 17 17 16 16 16 16 16 16 17 19 20 21 23 25 24 22 19 16 13 9 5 2 2 5 6 6 6 8 10 6 8 10 12 13 15 16 17 18
21 20 18 17 18 17 16 15 15 15 14 13 14 14 16 18 19 22 22 22 19 17 15 13 10 6 4 2 4 6 6 7 8 10 9 8 10 11 13 14 16 17 17
22 21 19 18 18 17 16 15 13 14 13 12 12 13 14 16 17 19 21 20 18 15 14 13 11 8 5 3 3 5 6 7 9 11 11 9 10 11 12 13 15 16 17
22 21 20 19 19 17 16 15 14 12 13 13 11 12 13 13 15 17 18 19 17 15 13 12 10 8 6 5 5 6 7 8 9 11 12 11 11 12 12 13 14 15 17
23 22 21 21 19 18 17 16 15 13 12 14 12 11 12 12 13 15 16 17 17 15 12 11 10 8 6 5 5 5 7 8 9 11 11 12 12 12 13 13 14 15 15
25 23 23 22 21 19 17 16 16 14 12 13 14 11 10 12 12 13 14 16 15 15 13 10 9 8 7 6 6 7 7 9 9 10 11 12 12 13 13 13 14 14 15
26 26 25 24 22 20 19 17 17 15 14 12 13 12 10 10 10 11 12 13 14 13 12 10 9 9 7 6 7 7 9 10 10 11 12 12 12 12 12 13 13 14 15
Wind_Direction
312 322 333 338 345 351 354 359 359 2 2 2 1 0 359 2 1 1 2 4 6 9 10 9 5 358 348 347 339 345 340 310 255 245 235 231 238 245 229 220 220 215 236
308 318 326 334 343 349 353 357 357 359 0 0 1 1 2 2 2 2 3 6 7 10 11 13 13 6 354 341 344 338 331 331 324 270 244 229 225 230 233 242 248 244 243
300 315 325 334 339 345 350 354 356 356 357 358 0 1 2 4 4 5 4 6 7 7 10 9 12 15 14 7 344 343 324 306 299 288 255 242 233 229 229 233 235 237 241
291 308 319 326 334 340 345 349 352 353 354 356 358 1 2 5 7 7 7 6 6 5 6 8 9 9 14 17 6 345 311 304 313 280 265 249 234 229 234 238 243 246 245
277 291 305 319 326 331 338 341 345 348 350 352 354 357 360 3 8 8 9 7 4 0 2 6 7 10 9 6 8 12 3 338 298 285 277 260 252 245 240 239 239 244 245
270 276 289 304 313 321 328 333 338 341 343 346 349 351 354 357 2 5 7 6 3 1 0 2 4 4 11 9 5 8 21 22 352 313 290 273 266 260 257 251 250 248 248
268 273 279 289 299 310 319 324 330 334 336 340 342 344 347 349 353 357 0 4 359 359 359 2 360 2 4 8 12 12 12 26 32 22 359 326 293 277 266 255 250 251 256
269 274 279 287 296 305 312 317 324 329 330 333 336 338 340 343 345 349 351 354 354 355 352 358 1 1 2 2 9 13 15 17 28 32 34 29 24 8 296 282 266 260 259
271 274 281 288 295 302 310 314 319 324 326 328 330 332 333 337 339 340 342 344 347 350 348 346 352 2 0 1 2 6 13 13 25 33 33 33 35 38 31 23 348 314 290
276 281 286 291 296 302 308 311 316 320 323 325 326 329 331 332 337 339 339 339 341 344 341 336 345 348 2 357 357 359 3 13 17 30 40 42 42 40 40 37 33 29 14
279 278 284 289 294 300 304 309 313 316 319 322 323 326 330 332 335 338 339 338 340 342 335 329 340 343 350 352 349 354 357 4 13 25 31 40 41 38 38 38 36 31 22
276 278 283 288 293 298 302 307 311 314 318 321 324 324 328 331 334 336 337 337 340 344 335 328 332 339 344 339 339 351 354 356 360 4 8 8 9 9 7 5 6 5 1
276 277 281 287 291 297 302 306 311 314 317 320 322 324 326 328 331 335 337 338 340 342 336 330 330 332 335 331 334 336 351 357 356 355 1 0 358 360 356 357 356 352 352
277 277 281 285 289 295 300 305 310 312 315 319 320 323 326 328 330 334 337 337 342 344 340 334 330 325 314 311 333 333 336 352 351 349 351 357 357 355 358 357 356 351 347
276 278 281 283 287 293 298 303 308 310 313 317 319 324 326 328 329 333 337 341 346 349 344 337 328 320 306 306 315 334 328 338 345 347 349 354 353 351 356 354 351 348 346
279 280 282 284 287 290 295 302 306 307 311 314 320 323 326 329 332 334 340 343 347 352 351 339 318 300 286 280 288 314 335 317 330 338 342 346 347 348 348 350 350 348 348
280 282 286 289 290 291 294 297 302 307 310 314 322 326 328 334 338 338 343 346 351 356 357 346 319 290 274 264 264 275 316 334 290 312 329 336 338 342 347 349 350 349 348
279 283 288 290 293 295 296 296 300 303 308 314 324 329 329 339 342 342 347 350 353 360 5 359 347 322 269 254 261 269 285 331 334 303 323 329 332 336 341 345 348 348 347
278 281 285 289 292 295 296 298 301 305 309 314 322 329 330 341 344 344 348 352 355 1 7 8 3 353 274 259 266 272 281 301 334 326 307 324 333 334 339 343 345 346 346
274 276 281 284 288 291 294 298 301 304 310 316 324 328 331 339 345 346 348 352 358 1 8 12 16 18 23 294 280 283 292 297 319 335 318 324 334 339 341 341 343 345 345
271 273 276 279 281 285 290 295 298 299 306 314 324 327 331 337 345 345 348 348 358 2 9 14 18 26 27 347 307 302 304 308 319 331 327 318 330 338 341 340 341 342 345
268 271 273 274 277 280 284 288 291 296 300 307 318 322 330 337 344 347 346 350 356 4 11 15 16 17 19 1 328 313 316 314 318 327 325 315 323 330 336 340 340 340 342
265 268 269 270 273 277 280 281 282 287 294 299 310 317 325 335 341 348 348 352 355 3 12 17 20 15 11 353 338 326 324 323 319 324 323 316 312 320 329 337 341 341 341
266 266 267 268 269 271 275 277 276 280 288 295 301 310 320 330 340 348 350 353 355 359 7 13 17 15 11 358 346 336 329 328 322 322 326 322 316 317 325 333 339 342 343
268 268 266 266 266 267 269 271 272 272 277 288 294 300 314 324 336 344 352 354 355 358 1 9 11 9 7 360 350 343 338 337 336 329 326 327 326 323 326 332 337 339 341
262 263 262 263 262 261 261 263 266 268 272 278 287 291 303 319 330 338 349 354 355 358 359 4 9 6 3 360 350 347 346 342 341 340 337 332 329 328 330 333 335 338 338